Showing default

BRITE-PL, 39431

Orbit data source: Space-Track

BRITE-PL, 39431 is a payload satellite owned by CBK (PL) in SSO that was launched on Thu, 21 Nov 2013 UTC via a DNEPR launch vehicle from the Orenburg, Russia (OREN). Payload-class satellites include a variety of spacecraft equipped with specific instruments for various scientific and technological missions. These include communications satellites like Starlink; space stations such as the ISS; scientific satellites like the Hubble; Earth observation satellites from companies like Planet Labs, Umbra, and HawkEye 360; GPS; miniature CubeSats for education and research; and military/defense satellites.

Loading next visibility...
Identifier
39431, 2013-066R
Orbit
SSO
Country
Flag of PLPL / POL
Related business
Manufacturer
CBKPL/UTIAS
Mission
Non-operational Civil Astronomy
Bus & Motor
GNB, Unknown motor
Mass
6 kg wet, 6 kg dry
Launch date (UTC)
2013-11-21 (12 years ago)
Launch vehicle
DNEPR
Launch site
Orenburg, Russia (OREN)
Object type
Payload
Rocket body
Debris
Shape & HBR
Box, 0.1 m
Radar Cross Section
0.060 m², Medium (>0.1 m² and < 1m²)

Expand to show TLE details & history
Last TLE update: 14 hours ago

TLE from 14 hours ago
0 BRITE-PL
1 39431U 13066R   25300.27544306  .00000829  00000-0  17550-3 0  9997
2 39431  97.7760  64.6860 0191554  16.1232 344.5946 14.50894893630159
Epoch: 2025-10-27T06:36Z
TLE epoch observation values (Epoch: 2025-10-27T06:36:38.280Z)
Latitude
-0.00004°
Longitude
-70.35312°
Altitude
594.742 km
Speed
7.632 km/s
True Right ascension
04h 18m 44s
True Declination
0° 00' 00"
Sunlit
Object was in full shadow at epoch
Visualization orbit readout
Latitude
Unknown
Longitude
Unknown
Altitude
Unknown
Speed
Unknown
Apparent Right ascension
Unknown
Apparent Declination
Unknown
Sunlit
N/A
Visualization observer readout
Local Sidereal Time
15:41:44
Azimuth
Unknown
Elevation
Unknown
Doppler factor
Unknown
Orbital elements
Apogee altitude
855.764 km
Perigee altitude
583.836 km
Semi-major axis
7,097.937 km
Eccentricity
0.01916
Inclination
97.776°
RAAN
64.686°
Arg. of periapsis
16.1232°
True anomaly
343.99774°
Mean anomaly
344.5946°
Eccentric anomaly
344.29756°
Mean motion
3.62948 °/min
Orbital period
99.19 mins
BSTAR
0.0001755
Loading maneuver chart data...
Computing Atmospheric mass density...
Loading historical data...
Loading historical data...
Loading historical data...
Loading historical data...
Loading historical data...
Loading historical data...
Loading historical data...

Documentation

Showing up to 5 results
|